Location: Bishopstone
(51.0167°N, 1.9000°W)
Time: 08:03:40
(UTC+00:00)

CZ-2C R/B - Pass Details

Date: 16 September 2019
Orbit: 785 x 870 km, 98.3° (Epoch: 20 October)

Event Time Altitude Azimuth Distance (km) Brightness Sun altitude
Rises 21:06:41 0° 15° (NNE) 3,419 6.2 -24.8°
Reaches altitude 10° 21:09:04 10° 18° (NNE) 2,490 5.4 -25.0°
Maximum altitude 21:14:36 71° 102° (ESE) 910 2.6 -25.7°
Enters shadow 21:14:48 71° 120° (ESE) 914 2.6 -25.7°
